C/2019 T3 ( ATLAS )

Japanese version
Home page
Updated on September 11, 2021

---------------------------------------------------------------------

* Profile

Discovery Date October 6, 2019
Magnitude 18.9 mag
Discoverer Asteroid Terrestrial-Impact Last Alert System (ATLAS) search program

* Pictures

* Orbital Elements

Epoch 2021 Mar. 7.0 TT = JDT 2459280.5
T 2021 Mar. 2.70023 TT                                  Rudenko
q   5.9464960            (2000.0)            P               Q
z  +0.0002924      Peri.  112.27630     +0.60544772     +0.57396878
 +/-0.0000008      Node   139.52071     -0.19750503     -0.56273463
e   0.9982610      Incl.  121.86226     +0.77098951     -0.59488619
From 746 observations 2019 Jan. 17-2021 Apr. 24, mean residual 0".5.

* Magnitudes Graph

        m1 = -7.0 + 5 log d + 25 log r

---------------------------------------------------------------------

The orbital elements are published on M.P.E.C. 2021-J28.
The magnitudes graphs are made with Comet for Windows.

---------------------------------------------------------------------

Copyright(C) Seiichi Yoshida (comet@aerith.net). All rights reserved.